EDT,Max TemperatureF,Mean TemperatureF,Min TemperatureF,Max Dew PointF,MeanDew PointF,Min DewpointF,Max Humidity, Mean Humidity, Min Humidity, Max Sea Level PressureIn, Mean Sea Level PressureIn, Min Sea Level PressureIn, Max VisibilityMiles, Mean VisibilityMiles, Min VisibilityMiles, Max Wind SpeedMPH, Mean Wind SpeedMPH, Max Gust SpeedMPH,PrecipitationIn, CloudCover, Events, WindDirDegrees
2012-10-1,65,56,48,52,48,42,94,76,44,29.93,29.81,29.73,10,8,3,15,7,,0.85,7,Rain,45
2012-10-2,67,60,55,64,59,52,100,92,79,29.91,29.78,29.68,10,6,0,12,7,,0.18,8,Fog-Rain,27
2012-10-3,68,62,57,63,52,47,100,72,49,30.15,30.04,29.91,10,10,9,14,7,,0.00,6,Fog,194
2012-10-4,77,64,52,52,49,44,88,65,32,30.20,30.16,30.12,10,10,7,15,6,22,0.01,2,Rain,191
2012-10-5,70,57,44,52,46,39,87,76,50,30.14,30.05,30.00,10,10,6,18,7,18,0.21,6,Rain,311
2012-10-6,56,46,37,39,33,23,87,63,29,30.16,30.09,30.03,10,9,3,12,7,,0.42,5,Rain,287
2012-10-7,50,45,37,33,31,28,72,57,46,30.22,30.16,30.12,10,10,10,8,5,,0.00,7,Rain,281
2012-10-8,54,42,31,34,30,26,90,65,34,30.28,30.22,30.17,10,10,10,9,2,,0.00,2,Fog,186
2012-10-9,61,48,36,39,35,32,90,64,35,30.19,30.10,29.97,10,10,10,14,5,,0.00,1,Fog,176
2012-10-10,56,44,34,42,34,24,81,60,37,30.26,30.05,29.91,10,10,10,21,10,29,0.01,4,Rain,261
2012-10-11,58,44,30,34,29,27,86,60,31,30.32,30.25,30.18,10,10,10,14,3,20,0.00,1,,207
2012-10-12,57,50,42,39,31,21,78,54,25,30.42,30.33,30.20,10,10,10,14,4,,0.00,3,,42
2012-10-13,71,52,36,58,43,27,77,60,48,30.37,30.19,30.02,10,10,10,17,5,25,0.00,5,,171
2012-10-14,71,65,58,61,57,53,94,76,58,30.01,29.81,29.68,10,8,1,30,17,39,0.52,7,Rain,207
2012-10-15,56,50,42,57,45,38,94,75,58,29.99,29.85,29.75,10,10,10,20,11,28,0.00,7,,270
2012-10-16,63,48,33,40,37,32,94,71,39,30.04,29.96,29.83,10,8,2,10,2,,0.00,3,Fog,175
2012-10-17,74,63,53,47,44,39,65,52,35,29.83,29.73,29.58,10,10,7,22,8,28,0.00,6,,163
2012-10-18,64,57,50,50,43,30,89,64,29,29.70,29.60,29.48,10,10,5,32,16,46,0.05,5,Rain,201
2012-10-19,55,50,46,45,39,32,93,70,47,29.70,29.63,29.57,10,10,9,16,11,25,0.10,7,Rain,194
2012-10-20,56,48,39,45,42,37,100,82,53,30.00,29.80,29.70,10,10,4,16,10,22,0.17,6,Rain,241
2012-10-21,64,50,35,46,41,34,97,78,50,30.17,30.11,30.01,10,9,3,8,3,,0.00,0,Fog,167
2012-10-22,75,60,45,54,48,42,91,66,43,30.14,30.09,30.04,10,10,10,12,3,,0.00,5,,181
2012-10-23,75,66,58,55,51,48,88,61,44,30.08,30.03,29.99,10,9,3,14,7,,0.16,7,Rain-Thunderstorm,195
2012-10-24,77,68,58,57,54,50,87,67,36,30.12,30.06,30.01,10,10,7,17,7,,0.06,4,Rain,175
2012-10-25,77,65,53,56,51,46,75,59,44,30.08,30.00,29.94,10,10,10,21,6,29,0.00,1,,168
2012-10-26,62,53,44,53,45,43,94,88,67,30.17,30.13,29.96,10,6,2,16,9,20,0.89,7,Rain,350
2012-10-27,51,46,42,43,40,36,94,83,62,30.17,30.12,30.07,10,9,6,16,11,21,0.07,7,Rain,357
2012-10-28,47,44,42,36,34,29,75,65,55,30.13,30.07,30.04,10,10,10,20,13,29,0.00,7,Rain,357
2012-10-29,43,39,35,33,30,22,87,68,45,30.06,29.94,29.70,10,10,10,26,15,41,0.06,8,Rain,331
2012-10-30,41,37,33,37,34,24,93,87,50,29.66,29.56,29.49,10,6,2,24,17,40,0.18,8,Rain-Snow,302
2012-10-31,41,40,38,37,36,34,93,86,80,29.81,29.70,29.61,10,8,1,17,12,25,0.03,8,Rain,271